Regional Weather Roundup
Issued by NWS Northern Indiana

Home | Current Version | Previous Version | Text Only | Print | Product List | Glossary Off
Versions: 1 2 3 4 5 6 7 8 9 10 11 12 13 14 15 16 17 18 19 20 21 22 23 24 25 26 27 28 29 30 31 32 33 34 35 36 37 38 39 40 41 42 43 44 45 46 47 48 49 50

000
ASUS43 KIWX 060600
RWRIWX

KIWX WEATHER ROUNDUP
NATIONAL WEATHER SERVICE NORTHERN INDIANA
100 AM EST FRI MAR 06 2015

NOTE: "FAIR" INDICATES FEW OR NO CLOUDS BELOW 12,000 FEET WITH NO
SIGNIFICANT WEATHER AND/OR OBSTRUCTIONS TO VISIBILITY.

* THESE STATIONS ARE NOT UNDER NWS QUALITY CONTROL. THEY ALSO MAY NOT
  REPORT WEATHER SUCH AS PRECIPITATION OR FOG.

INZ001>027-060700-
NORTHERN INDIANA

CITY           SKY/WX    TMP DP  RH WIND       PRES   REMARKS
GARY*          PTCLDY    10  -2  56 SW3       30.55F
LAPORTE*       PTCLDY     6  -2  68 SW5       30.53S WCI  -3
6HR MIN TEMP:   1; 6HR MAX TEMP:  14;

SOUTH BEND     MOCLDY     5  -1  76 CALM      30.52S
6HR MIN TEMP:   4; 6HR MAX TEMP:  14;

GOSHEN         MOCLDY     3  -2  79 SW8       30.51R WCI -10
6HR MIN TEMP:   0; 6HR MAX TEMP:  12;

ANGOLA*        CLEAR      0  -4  85 CALM      30.47S
FORT WAYNE     PTCLDY     2  -2  83 W6        30.53S WCI  -9
6HR MIN TEMP:   1; 6HR MAX TEMP:  13;

PERU/GRISSOM   MOCLDY     2  -4  75 W6        30.52F WCI  -9
6HR MIN TEMP:   2; 6HR MAX TEMP:  13;


$$
INZ028>050-060700-
CENTRAL INDIANA

CITY           SKY/WX    TMP DP  RH WIND       PRES   REMARKS
LAFAYETTE      MOCLDY     1  -1  91 CALM      30.57F
6HR MIN TEMP:   0; 6HR MAX TEMP:  12;

KOKOMO*          N/A    N/A N/A N/A MISG        N/A
MUNCIE*        PTCLDY     8   2  76 W3        30.53S
6HR MIN TEMP:   6; 6HR MAX TEMP:  15;

INDIANAPOLIS   PTCLDY     7  -2  66 W7        30.54F WCI  -5
6HR MIN TEMP:   7; 6HR MAX TEMP:  16;


$$
MIZ043>046-050>051-056>058-064>065-071>073-077>080-060700-
SOUTHWEST LOWER MICHIGAN

CITY           SKY/WX    TMP DP  RH WIND       PRES   REMARKS
BATTLE CREEK   MOCLDY     3  -3  76 S3        30.47F
6HR MIN TEMP:   3; 6HR MAX TEMP:  15;

BENTON HARBOR  PTCLDY     7   2  80 S6        30.51S WCI  -3
6HR MIN TEMP:   1; 6HR MAX TEMP:  14;

COLDWATER*     PTCLDY    -1  -5  82 CALM      30.48S
6HR MIN TEMP:  -1; 6HR MAX TEMP:  14;

HILLSDALE*     FAIR       5   0  80 CALM      30.45F
6HR MIN TEMP:   4; 6HR MAX TEMP:  15;

HOLLAND        CLOUDY     3  -3  76 S3        30.49S
6HR MIN TEMP:  -2; 6HR MAX TEMP:  12;

GRAND RAPIDS   PTCLDY     1  -3  83 S7        30.46F WCI -12
6HR MIN TEMP:   0; 6HR MAX TEMP:  13;

KALAMAZOO      MOCLDY     3   0  87 S6        30.48S WCI  -8
6HR MIN TEMP:   3; 6HR MAX TEMP:  15;

STURGIS*       MOCLDY     3   1  92 CALM      30.48S
THREE RIVERS*  FAIR       3  -1  84 S5        30.49S WCI  -7

$$
OHZ001>008-015>018-024>025-060700-
NORTHWEST OHIO

CITY           SKY/WX    TMP DP  RH WIND       PRES   REMARKS
DEFIANCE       MOCLDY     4  -1  80 CALM      30.52F
6HR MIN TEMP:   4; 6HR MAX TEMP:  17;

FINDLAY        MOCLDY     5  -1  76 CALM      30.50F
6HR MIN TEMP:   3; 6HR MAX TEMP:  17;

TOLEDO EXPRESS PTCLDY     5  -1  76 SW5       30.51S WCI  -4
6HR MIN TEMP:   0; 6HR MAX TEMP:  15;

TOLEDO METCALF FAIR       8  -1  66 SW6       30.52F WCI  -2
6HR MIN TEMP:   6; 6HR MAX TEMP:  15;

LIMA           MOCLDY     9   4  80 S6        30.50S WCI  -1
6HR MIN TEMP:   9; 6HR MAX TEMP:  16;


$$
AND FOR LAKE MICHIGAN COASTAL AND OPEN LAKE BUOY OBSERVATIONS

STATION/POSITION TEMP    WIND        PRES    VSBY  WAVE
                 AIR SEA DIR/SP/G                  HT/PER
                 (F)     (DEG/KT/KT) (MB)    (MI)  (FT/S)
CALUMET HARBOR    10     230/  5/ 10 1032.8F
MICHIGAN CITY      9     190/ 10/ 10   N/A
SAINT JOSEPH      12     180/ 11/ 16 1032.8F

$$
&&


USA.gov is the U.S. government's official web portal to all federal, state and local government web resources and services.